Regional Weather Roundup
Issued by NWS

Home | Current Version | Previous Version | Text Only | Print | Product List | Glossary On
Versions: 1 2 3 4 5 6 7 8 9 10 11 12 13 14 15 16 17 18 19 20 21 22 23 24 25 26 27 28 29 30 31 32 33 34 35 36 37 38 39 40 41 42 43 44 45 46 47 48 49 50
000
ASUS43 KFSD 010102
RWRSD

WEATHER ROUNDUP FOR SOUTH DAKOTA
NATIONAL WEATHER SERVICE SIOUX FALLS SD
800 PM CDT FRI SEP 30 2016

NOTE: "FAIR" INDICATES FEW OR NO CLOUDS BELOW 12,000 FEET WITH NO
SIGNIFICANT WEATHER AND/OR OBSTRUCTIONS TO VISIBILITY.


SDZ001>005-009-010-012>017-010200-
NORTHWEST AND NORTH CENTRAL SOUTH DAKOTA

CITY           SKY/WX    TMP DP  RH WIND       PRES   REMARKS
BUFFALO          N/A     65  47  52 SE10      29.95S
FAITH            N/A     68  48  48 SE20      30.00F
MOBRIDGE       PTCLDY    67  44  43 SE14      30.05F
$$

SDZ012>016-024>037-041>051-057-063-072>074-010200-
SOUTHWEST AND SOUTH CENTRAL SOUTH DAKOTA

CITY           SKY/WX    TMP DP  RH WIND       PRES   REMARKS
RAPID CTY ARPT CLOUDY    67  52  58 SE5       30.01F
PIERRE         CLOUDY    67  45  45 SE15      30.06S
CUSTER         MOCLDY    62  45  53 CALM      30.15F
ELLSWORTH AFB  CLOUDY    70  52  53 S8        30.00F
PHILIP         PTCLDY    69  48  47 SE13      30.01F
PINE RIDGE     MOCLDY    69  48  47 S14       30.06F
WINNER         FAIR      62  48  60 SE9       30.11F
$$

SDZ004>011-016>023-039-040-010200-
NORTHEAST SOUTH DAKOTA

CITY           SKY/WX    TMP DP  RH WIND       PRES   REMARKS
ABERDEEN       PTCLDY    60  44  55 SE7       30.15S
WATERTOWN      PTCLDY    63  44  50 SE6       30.18F
SISSETON         N/A     56  47  71 SE5       30.18S
$$

SDZ017-020-022-023-036>040-048>070-010200-
SOUTHEAST SOUTH DAKOTA

CITY           SKY/WX    TMP DP  RH WIND       PRES   REMARKS
SIOUX FALLS    MOCLDY    59  47  64 E6        30.17S
HURON          PTCLDY    62  46  55 SE7       30.14S
CHAMBERLAIN    PTCLDY    62  47  58 SE7       30.12S
MITCHELL       PTCLDY    62  46  55 SE7       30.15F
YANKTON        PTCLDY    64  46  52 SE3       30.14S
$$

ABBREVIATIONS USED IN REMARKS
   TC - TEMPERATURE IN CELSIUS
  WCI - WIND CHILL INDEX
   HX - HEAT INDEX
  VSB - VISIBILITY




USA.gov is the U.S. government's official web portal to all federal, state and local government web resources and services.